Home   Weather   Walnut Creek   Past weeks

Flag for USA Past Weather in Walnut Creek, California, USA — Yesterday and Last 2 Weeks

Now
52 °F

Clear.


Feels Like: 51 °F
Forecast: 46 / 57 °F
Wind: 5 mph from North

Location: Buchanan Field

Current Time: Dec 5, 2016 at 12:40:34 am

Latest Report: Dec 4, 2016 at 11:53 pm


Visibility: 10 mi

Pressure: 30.07 "Hg

Humidity: 80%

Dew Point: 46 °F

Location of Walnut CreekLocation

Past Weather in Walnut Creek — Graph

°F

Walnut Creek Temperature Yesterday

Maximum temperature yesterday: 60 °F (at 2:53 pm)
Minimum temperature yesterday: 38 °F (at 4:53 am)
Average temperature yesterday: 50 °F

High & Low Weather Summary for the Past Weeks

 TemperatureHumidityPressure
High63 °F (Dec 2, 12:53 pm)96% (Nov 20, 4:02 am)30.34 "Hg (Nov 20, 4:02 am)
Low38 °F (Nov 24, 6:53 am)25% (Dec 2, 11:53 am)29.77 "Hg (Nov 26, 4:53 am)
Average51 °F71%30.07 "Hg
* Reported Nov 19 11:02 pm — Dec 4 10:53 pm, Walnut Creek, Weather by CustomWeather, © 2016

Note: Actual official high and low records may vary slightly from our data, if they occured in-between our weather recording intervals... More about our weather records

Advertising

Walnut Creek Weather History for the Previous 24 Hours

Scroll right to see more
 ConditionsComfort  
Time TempWeatherWind HumidityBarometerVisibility
10:53 pm
Sun, Dec 4
53 °FClear.6 mph77%30.08 "Hg10 mi
9:53 pm51 °FClear.No wind77%30.07 "Hg10 mi
8:53 pm54 °FClear.5 mph74%30.08 "Hg10 mi
7:53 pm55 °FClear.7 mph72%30.08 "Hg10 mi
6:53 pm54 °FClear.3 mph69%30.07 "Hg10 mi
5:53 pm58 °FClear.7 mph62%30.06 "Hg10 mi
4:53 pm59 °FClear.6 mph58%30.07 "Hg10 mi
3:53 pm60 °FSunny.No wind49%30.06 "Hg10 mi
2:53 pm60 °FSunny.No wind47%30.07 "Hg10 mi
1:53 pm59 °FPartly sunny.No wind46%30.09 "Hg9 mi
12:53 pm58 °FScattered clouds.6 mph50%30.11 "Hg7 mi
11:53 am56 °FScattered clouds.5 mph55%30.12 "Hg6 mi
10:53 am52 °FSunny.8 mph64%30.17 "Hg6 mi
9:53 am50 °FSunny.No wind71%30.18 "Hg10 mi
8:53 am44 °FSunny.No wind79%30.18 "Hg10 mi
7:53 am39 °FSunny.3 mph86%30.16 "Hg10 mi
6:53 am38 °FClear.No wind83%30.15 "Hg10 mi
5:53 am39 °FClear.3 mph82%30.13 "Hg10 mi
4:53 am38 °FClear.No wind86%30.13 "Hg10 mi
3:53 am40 °FClear.No wind83%30.14 "Hg10 mi
2:53 am41 °FClear.No wind80%30.14 "Hg10 mi
1:53 am42 °FClear.3 mph79%30.14 "Hg10 mi
12:53 am43 °FClear.No wind76%30.15 "Hg10 mi
Weather by CustomWeather, © 2016

See weather overviewHow to use our weather pages